International Skating Union - Official Site

ISU World Cup Heerenveen
December 11-13, 2015

Draw | Lap Times | Index | World Cup

Referee: Hanjo  HEIDEMAN  (NED)
Starter: Ole Herman  SÖRLI  (NOR)
StartTime: EndTime: Air Temp: Ice Temp: Humidity:
15:55 16:38 15.2℃ -11.8℃ 42,4%
Result 3000m Ladies Division A
Rankings as of Dec 13 2015 6:02PM
Rank: No.: Name: Nation: Time: Behind: Points:
1 225 Martina  Sábliková CZE CZE 4:03.50200m - 20.28 - (20.2)
600m - 51.43 - (31.1)
1000m - 1:22.84 - (31.4)
1400m - 1:54.91 - (32.0)
1800m - 2:27.04 - (32.1)
2200m - 2:59.11 - (32.0)
2600m - 3:31.14 - (32.0)
3000m - 4:03.50 - (32.3)
100
2 270 Annouk  van der Weijden NED NED 4:05.39200m - 19.92 - (19.9)
600m - 50.81 - (30.8)
1000m - 1:22.44 - (31.6)
1400m - 1:54.50 - (32.0)
1800m - 2:26.67 - (32.1)
2200m - 2:59.26 - (32.5)
2600m - 3:32.11 - (32.8)
3000m - 4:05.39 - (33.2)
1.89 80
3 285 Olga  Graf RUS RUS 4:06.57200m - 21.15 - (21.1)
600m - 52.93 - (31.7)
1000m - 1:24.99 - (32.0)
1400m - 1:56.95 - (31.9)
1800m - 2:28.83 - (31.8)
2200m - 3:01.15 - (32.3)
2600m - 3:33.80 - (32.6)
3000m - 4:06.57 - (32.7)
3.07 70
4 265 Irene  Schouten NED NED 4:07.15200m - 20.40 - (20.4)
600m - 52.25 - (31.8)
1000m - 1:24.44 - (32.1)
1400m - 1:56.68 - (32.2)
1800m - 2:28.77 - (32.0)
2200m - 3:01.06 - (32.2)
2600m - 3:33.85 - (32.7)
3000m - 4:07.15 - (33.3)
3.65 60
5 291 Natalya  Voronina RUS RUS 4:07.85200m - 20.22 - (20.2)
600m - 51.48 - (31.2)
1000m - 1:23.64 - (32.1)
1400m - 1:55.75 - (32.1)
1800m - 2:28.73 - (32.9)
2200m - 3:01.28 - (32.5)
2600m - 3:34.35 - (33.0)
3000m - 4:07.85 - (33.4)
4.35 50
6 261 Marije  Joling NED NED 4:08.01200m - 20.05 - (20.0)
600m - 51.57 - (31.5)
1000m - 1:23.15 - (31.5)
1400m - 1:55.19 - (32.0)
1800m - 2:27.96 - (32.7)
2200m - 3:00.81 - (32.8)
2600m - 3:34.02 - (33.2)
3000m - 4:08.01 - (33.9)
4.51 45
7 264 Yvonne  Nauta NED NED 4:08.77200m - 20.11 - (20.1)
600m - 51.46 - (31.3)
1000m - 1:23.84 - (32.3)
1400m - 1:56.30 - (32.4)
1800m - 2:29.16 - (32.8)
2200m - 3:01.93 - (32.7)
2600m - 3:35.07 - (33.1)
3000m - 4:08.77 - (33.7)
5.27 40
8 272 Jorien  Voorhuis NED NED 4:10.08200m - 20.19 - (20.1)
600m - 52.07 - (31.8)
1000m - 1:24.26 - (32.1)
1400m - 1:57.11 - (32.8)
1800m - 2:30.13 - (33.0)
2200m - 3:03.30 - (33.1)
2600m - 3:36.63 - (33.3)
3000m - 4:10.08 - (33.4)
6.58 35
9 234 Claudia  Pechstein GER GER 4:10.43200m - 20.90 - (20.9)
600m - 53.42 - (32.5)
1000m - 1:26.30 - (32.8)
1400m - 1:59.41 - (33.1)
1800m - 2:32.55 - (33.1)
2200m - 3:05.27 - (32.7)
2600m - 3:37.87 - (32.5)
3000m - 4:10.43 - (32.5)
6.93 30
10 206 Ivanie  Blondin CAN CAN 4:11.45200m - 20.59 - (20.5)
600m - 52.97 - (32.3)
1000m - 1:25.66 - (32.6)
1400m - 1:58.52 - (32.8)
1800m - 2:31.43 - (32.9)
2200m - 3:04.35 - (32.9)
2600m - 3:37.56 - (33.2)
3000m - 4:11.45 - (33.8)
7.95 25
11 243 Misaki  Oshigiri JPN JPN 4:12.32200m - 19.45 - (19.4)
600m - 51.03 - (31.5)
1000m - 1:23.06 - (32.0)
1400m - 1:55.64 - (32.5)
1800m - 2:29.06 - (33.4)
2200m - 3:03.17 - (34.1)
2600m - 3:37.69 - (34.5)
3000m - 4:12.32 - (34.6)
8.82 21
12 245 Nana  Takagi JPN JPN 4:13.64200m - 20.21 - (20.2)
600m - 52.27 - (32.0)
1000m - 1:25.50 - (33.2)
1400m - 1:58.69 - (33.1)
1800m - 2:32.08 - (33.3)
2200m - 3:05.55 - (33.4)
2600m - 3:39.24 - (33.6)
3000m - 4:13.64 - (34.3)
10.14 18
13 287 Elizaveta  Kazelina RUS RUS 4:15.46200m - 19.80 - (19.8)
600m - 51.26 - (31.4)
1000m - 1:24.63 - (33.3)
1400m - 1:58.40 - (33.7)
1800m - 2:31.78 - (33.3)
2200m - 3:05.79 - (34.0)
2600m - 3:40.03 - (34.2)
3000m - 4:15.46 - (35.4)
11.96 16
14 237 Francesca  Lollobrigida ITA ITA 4:20.14200m - 20.07 - (20.0)
600m - 51.74 - (31.6)
1000m - 1:24.73 - (32.9)
1400m - 1:58.20 - (33.4)
1800m - 2:32.50 - (34.2)
2200m - 3:07.46 - (34.9)
2600m - 3:43.57 - (36.1)
3000m - 4:20.14 - (36.5)
16.64 14
15 244 Miho  Takagi JPN JPN DQ200m - 20.03 - (20.0)
600m - 51.84 - (31.8)
1000m - 1:23.97 - (32.1)
1400m - 1:56.59 - (32.6)
1800m - 2:29.39 - (32.7)
2200m - 3:02.52 - (33.1)
2600m - 3:35.92 - (33.3)
3000m - 4:10.89 - (34.9)
0
15 240 Ayaka  Kikuchi JPN JPN DQ200m - 20.17 - (20.1)
600m - 52.12 - (31.9)
1000m - 1:24.95 - (32.8)
1400m - 1:58.26 - (33.3)
1800m - 2:31.70 - (33.4)
2200m - 3:05.71 - (34.0)
2600m - 3:40.24 - (34.5)
3000m - 4:14.74 - (34.5)
0